GW2134 Weather Reports


time (UTC)temp
C
wind
direction
speed
KPH
gust
KPH
rain 1hr
cm
rain 24hr
cm
rain mn
cm
humidity
%
barometer
mb
20260506163058 15 224 3.2 17.7 0.00 2.49 2.49 56 1012.3
20260506161554 15 338 1.6 16.1 0.00 2.49 2.49 58 1012.3
20260506160105 15 56 4.8 19.3 0.00 2.49 2.49 59 1012.4
20260506154554 15 163 8.0 16.1 0.00 2.49 2.49 62 1012.4
20260506153050 16 182 8.0 14.5 0.00 2.49 2.49 63 1012.4
20260506151555 15 194 3.2 12.9 0.00 2.49 2.49 63 1012.3
20260506144609 16 170 1.6 19.3 0.00 2.49 2.49 65 1012.5
20260506143055 16 360 1.6 19.3 0.00 2.49 2.49 68 1012.3
20260506141610 15 167 8.0 20.9 0.00 2.49 2.49 67 1012.3
20260506140054 15 0 0.0 14.5 0.00 2.49 2.49 74 1012.3
20260506134601 15 189 4.8 12.9 0.00 2.49 2.49 76 1012.6
20260506133108 15 360 3.2 12.9 0.00 2.49 2.49 74 1012.5
20260506131557 14 360 3.2 14.5 0.03 2.49 2.49 76 1012.7
20260506130055 13 360 3.2 9.7 0.08 2.49 2.49 80 1012.8
20260506124549 12 333 1.6 11.3 0.18 2.49 2.49 82 1013.0
20260506123051 12 27 3.2 8.0 0.20 2.49 2.49 86 1013.3
20260506121610 12 360 4.8 9.7 0.23 2.44 2.44 86 1012.9
20260506120119 12 360 3.2 14.5 0.23 2.36 2.36 86 1012.4
20260506114551 12 13 3.2 19.3 0.15 2.29 2.29 86 1012.4
20260506113051 12 95 8.0 25.7 0.15 2.26 2.26 88 1012.5
20260506111555 13 263 8.0 17.7 0.08 2.21 2.21 91 1012.4
20260506110054 13 0 0.0 8.0 0.00 2.13 2.13 91 1012.4
20260506104550 13 68 1.6 9.7 0.00 2.16 2.13 91 1012.4
20260506103055 13 291 0.0 12.9 0.00 2.13 2.11 92 1012.3
20260506101552 12 21 3.2 11.3 0.00 2.13 2.11 92 1012.5
20260506100054 12 119 0.0 9.7 0.00 2.13 2.11 92 1012.4
20260506094551 12 0 0.0 12.9 0.05 2.44 2.11 93 1012.5
20260506093054 12 174 1.6 11.3 0.08 2.41 2.08 93 1012.7
20260506091556 12 129 4.8 12.9 0.08 2.41 2.08 92 1012.5
20260506090052 12 325 3.2 20.9 0.15 2.41 2.08 92 1012.5
20260506084548 12 169 4.8 19.3 0.10 2.54 2.06 92 1012.4
20260506083049 12 0 0.0 6.4 0.08 2.49 2.01 93 1012.4
20260506081554 12 0 0.0 6.4 0.08 2.46 1.98 93 1012.3
20260506073058 11 31 0.0 8.0 0.18 2.49 1.91 93 1012.2
20260506071556 11 0 0.0 4.8 0.18 2.46 1.88 93 1012.3
20260506070116 11 0 0.0 3.2 0.15 2.44 1.88 93 1012.4
20260506061603 11 0 0.0 4.8 0.13 2.34 1.70 92 1012.4
20260506050110 11 18 0.0 6.4 0.33 2.57 1.52 92 1012.9
20260506044559 10 347 0.0 8.0 0.38 2.59 1.47 92 1012.9
20260506043053 10 355 1.6 6.4 0.43 2.49 1.37 92 1012.8
20260506041556 10 333 3.2 6.4 0.46 2.44 1.30 92 1012.9
20260506040059 11 0 0.0 3.2 0.38 2.31 1.19 92 1012.9
20260506034553 11 0 0.0 1.6 0.38 2.26 1.07 92 1013.4
20260506033059 11 127 0.0 4.8 0.25 2.13 0.94 92 1013.5
20260506031603 11 0 0.0 1.6 0.15 2.03 0.84 91 1013.5
20260506030115 11 164 0.0 1.6 0.10 1.98 0.79 91 1013.6
20260506024556 11 164 0.0 3.2 0.08 1.93 0.66 91 1013.6
20260506023052 11 0 0.0 3.2 0.18 1.93 0.66 91 1013.7
20260506021553 11 172 0.0 6.4 0.18 1.93 0.66 91 1013.7
20260506020053 11 0 0.0 6.4 0.23 1.93 0.66 91 1014.0
20260506014602 11 192 0.0 8.0 0.23 1.85 0.58 91 1014.1
20260506013058 11 186 1.6 6.4 0.18 1.75 0.48 90 1013.9
20260506011559 12 0 0.0 6.4 0.18 1.73 0.46 91 1014.0
20260506010058 12 344 0.0 4.8 0.15 1.68 0.41 90 1014.3
20260506004625 12 0 0.0 4.8 0.15 1.60 0.36 90 1014.4
20260506003058 12 18 1.6 3.2 0.13 1.57 0.30 90 1014.6
20260506001600 12 0 0.0 6.4 0.10 1.55 0.28 90 1014.6
20260506000100 12 355 3.2 8.0 0.13 1.50 0.25 90 1014.2
20260505234614 12 0 0.0 3.2 0.13 1.45 0.18 89 1014.7
20260505233051 12 348 3.2 6.4 0.18 1.42 0.18 88 1014.7
20260505231554 12 0 0.0 1.6 0.18 1.42 0.18 88 1015.1
20260505230053 12 360 1.6 6.4 0.10 1.37 0.10 87 1015.0
20260505224553 12 326 1.6 6.4 0.05 1.30 0.05 85 1015.1
20260505223103 12 112 0.0 4.8 0.00 1.24 0.00 85 1015.4
20260505221606 12 338 1.6 6.4 0.00 1.24 0.00 83 1015.2
20260505220130 12 0 0.0 4.8 0.00 1.24 0.00 81 1015.7
20260505214604 12 0 1.6 4.8 0.00 1.24 1.24 79 1015.7
20260505213051 12 0 0.0 8.0 0.00 1.24 1.24 79 1015.7
20260505211611 12 325 4.8 8.0 0.00 1.24 1.24 77 1015.7
20260505210052 13 0 0.0 3.2 0.00 1.24 1.24 74 1016.0
20260505204558 13 0 0.0 4.8 0.00 1.24 1.24 71 1015.8
20260505203054 13 0 0.0 1.6 0.00 1.24 1.24 70 1015.7
20260505201602 13 0 0.0 1.6 0.00 1.24 1.24 70 1015.8
20260505200101 14 0 0.0 3.2 0.00 1.24 1.24 69 1015.7
20260505194602 14 306 1.6 9.7 0.00 1.24 1.24 69 1015.4
20260505193052 14 5 0.0 9.7 0.00 1.24 1.24 71 1015.5
20260505191554 14 0 1.6 6.4 0.00 1.24 1.24 70 1015.3
20260505190100 14 0 0.0 6.4 0.00 1.24 1.24 69 1015.2
20260505184550 14 0 0.0 9.7 0.00 1.24 1.24 68 1015.2
20260505183055 14 0 0.0 4.8 0.00 1.24 1.24 67 1015.2
20260505181554 15 0 1.6 6.4 0.00 1.24 1.24 67 1015.1
20260505174552 16 0 0.0 9.7 0.00 1.24 1.24 64 1015.0
20260505173053 16 0 0.0 3.2 0.00 1.24 1.24 62 1014.9
20260505171555 17 0 0.0 6.4 0.00 1.24 1.24 61 1015.0
20260505170053 17 0 1.6 6.4 0.00 1.24 1.24 60 1015.1
20260505164600 17 215 1.6 19.3 0.00 1.24 1.24 59 1014.9